Vorticity
nan nan nan nan nan nan nan nan nan nan nan nan nan nan nan nan nan nan nan nan nan nan nan nan nan nan nan nan nan nan nan nan nan nan nan nan nan nan nan nan nan nan nan nan
nan 8 4 5 6 8 8 12 2 14 6 3 16 8 1 0 14 12 6 8 5 11 12 5 6 6 7 6 7 8 8 8 6 6 8 8 9 8 10 9 13 10 10 nan
nan 7 7 4 8 9 10 8 10 16 10 -1 2 2 12 7 6 9 9 5 8 13 9 8 7 8 11 8 7 8 7 6 7 6 6 7 7 10 8 11 11 9 9 nan
nan 8 11 5 9 9 6 3 11 14 11 5 2 7 10 9 6 16 8 6 9 9 6 9 7 9 12 8 7 8 7 7 8 8 9 10 9 9 9 9 8 8 7 nan
nan 10 10 8 7 7 8 9 9 4 8 12 4 10 18 11 7 12 14 11 9 9 6 5 5 6 9 9 7 8 8 7 9 10 8 9 10 9 10 9 7 5 8 nan
nan 8 9 10 10 7 10 9 10 14 7 9 12 4 15 15 12 5 10 13 11 8 7 6 5 7 7 7 7 7 8 9 9 7 7 7 8 7 6 6 7 8 10 nan
nan 6 6 9 10 9 8 9 8 10 13 7 4 8 17 13 11 8 3 5 13 16 7 7 6 7 7 8 7 6 7 8 8 6 7 8 8 7 6 7 9 8 8 nan
nan 13 12 9 10 12 5 8 7 7 7 11 9 13 22 22 8 7 6 7 3 9 16 11 7 10 9 7 7 7 4 7 8 7 8 8 7 6 9 10 9 8 10 nan
nan 10 11 13 12 6 10 10 5 5 6 11 16 7 14 24 16 14 6 9 9 4 9 15 12 10 8 8 8 7 4 6 7 8 8 7 6 7 9 9 7 7 8 nan
nan 16 11 12 7 7 14 3 4 11 13 9 11 8 10 14 15 15 14 11 10 14 13 12 12 7 9 9 9 8 8 7 6 8 7 8 8 8 7 8 7 6 6 nan
nan 6 15 11 6 9 3 9 13 13 7 8 10 9 16 13 10 11 16 16 16 15 9 10 13 9 8 9 9 8 8 7 6 7 8 8 10 10 8 8 8 8 8 nan
nan 0 17 9 6 10 4 7 6 3 8 12 12 12 16 7 7 8 13 11 13 19 19 7 2 4 9 9 8 8 7 7 6 7 9 9 10 9 9 9 9 8 8 nan
nan 4 8 14 18 13 6 3 6 4 12 8 5 12 13 14 11 8 9 11 9 8 15 15 11 11 8 6 7 8 8 8 8 6 8 9 8 9 9 9 8 8 8 nan
nan 11 14 10 12 9 10 11 6 4 3 14 8 8 4 11 9 11 12 11 10 8 11 14 13 14 8 7 7 7 8 9 7 8 7 7 8 8 9 9 8 9 8 nan
nan 7 8 9 7 8 14 12 6 2 6 8 10 11 7 4 7 7 3 6 9 10 9 10 14 15 8 8 9 8 9 9 10 8 8 7 7 8 9 9 9 9 8 nan
nan 11 12 9 12 12 13 15 10 4 6 5 10 11 17 3 5 11 11 9 8 8 11 12 12 16 13 9 11 9 10 6 11 11 9 9 9 8 8 8 9 9 8 nan
nan 9 11 12 7 5 13 16 15 28 22 13 12 14 16 13 9 10 11 9 8 9 9 10 16 17 17 12 12 5 0 14 17 11 11 11 9 8 8 9 9 9 10 nan
nan 12 13 13 10 11 6 4 14 11 7 15 33 28 9 10 14 10 9 9 8 11 10 7 12 21 17 11 11 16 10 10 7 7 7 10 10 9 9 10 9 8 11 nan
nan 11 12 16 13 12 9 12 14 2 2 3 15 25 16 3 -2 9 19 16 12 10 11 11 12 18 16 12 9 7 7 9 10 8 8 9 9 9 10 10 9 9 10 nan
nan 11 10 9 12 9 13 6 8 12 7 7 3 8 14 12 7 8 11 10 12 8 7 9 14 20 13 12 11 7 5 6 9 10 11 9 9 11 10 9 10 9 10 nan
nan 11 10 8 7 2 7 10 13 10 12 13 12 5 8 13 14 13 10 7 6 8 8 6 16 18 13 13 12 9 6 9 10 10 12 11 10 9 9 9 10 10 9 nan
nan 5 8 9 10 3 2 32 15 8 15 12 8 11 13 8 11 13 6 8 12 8 10 10 14 16 17 15 10 14 12 15 10 13 10 10 9 9 11 13 11 11 8 nan
nan 12 15 13 10 11 6 7 7 17 12 6 7 11 8 8 10 9 9 13 19 19 14 14 10 10 16 12 9 10 12 8 23 21 13 13 11 12 13 12 7 8 11 nan
nan 13 11 6 8 8 12 6 6 10 17 10 8 10 10 9 7 8 10 17 17 20 15 12 7 5 7 9 14 3 5 3 9 10 15 8 15 13 11 12 11 12 12 nan
nan 11 10 7 7 14 8 9 13 6 0 9 17 9 7 10 13 19 19 19 12 9 7 8 6 6 7 8 5 8 10 11 2 2 3 13 14 11 8 8 13 14 12 nan
nan nan nan nan nan nan nan nan nan nan nan nan nan nan nan nan nan nan nan nan nan nan nan nan nan nan nan nan nan nan nan nan nan nan nan nan nan nan nan nan nan nan nan nan
CAPE
0 0 0 0 0 0 0 0 4 0 0 0 8 232 357 273 238 274 422 524 608 818 921 1042 1045 1036 1469 1288 1390 1537 1807 2312 1856 1925 1732 1972 1242 1809 1710 1737 1930 1815 1646 1656
0 0 0 0 0 0 0 7 5 33 3 25 12 88 121 92 69 192 296 257 356 334 1232 1215 1137 896 1284 1316 1909 1781 2206 2423 2118 2250 2229 2283 2212 1946 1995 1927 2090 1653 1615 1607
0 0 0 0 0 0 0 0 16 60 71 54 56 77 105 98 44 146 279 179 183 463 950 1259 1366 1196 1430 1868 2006 2158 2450 2342 2477 1982 2656 2327 2002 1804 1029 717 573 222 119 494
0 0 0 0 0 0 0 0 0 8 64 28 85 61 28 7 0 99 233 168 145 265 169 377 389 611 1910 1972 2303 2692 2398 2278 2507 2489 2223 1682 1196 20 415 307 166 91 416 210
0 0 0 0 0 0 0 0 0 0 0 3 30 2 46 19 0 45 86 207 113 157 217 445 430 591 1294 1937 2119 2649 2329 2735 2440 441 642 76 0 0 27 8 0 0 1 204
0 0 0 0 0 0 0 0 0 0 0 0 0 0 37 8 54 38 51 43 68 142 281 392 573 674 1241 1633 2367 2734 2876 1679 950 117 16 0 0 0 0 4 0 19 0 63
0 0 0 0 0 0 0 0 0 0 0 0 0 0 13 61 50 4 15 8 1 60 238 327 487 648 1251 1668 2251 2815 1668 978 568 118 113 0 0 0 0 0 27 30 0 107
0 0 0 0 0 0 0 0 0 0 0 0 0 0 3 118 99 65 22 6 22 2 50 125 192 294 1120 1542 2409 2230 1248 1143 602 387 46 0 0 0 6 318 60 0 0 1
0 0 0 0 0 0 0 0 0 0 0 0 1 2 33 60 58 75 77 9 0 0 32 36 113 245 965 1539 2298 1670 1260 1135 747 458 49 18 28 18 133 28 0 0 141 0
0 0 0 0 0 0 0 0 0 0 0 0 1 29 17 1 14 43 127 9 15 1 74 130 149 501 1072 1740 1799 1455 1194 1032 879 514 351 349 326 186 92 46 0 13 0 79
0 0 0 0 0 0 0 0 0 0 0 0 12 9 86 20 0 0 0 12 26 66 94 333 546 755 1219 1669 1621 1312 1196 1062 782 573 476 471 605 322 177 89 5 23 97 303
0 0 0 0 0 0 0 0 0 0 0 8 19 25 0 0 0 0 0 0 0 45 44 283 308 573 1324 1509 1333 1202 1251 991 438 590 538 408 0 6 133 46 17 11 51 105
0 0 0 2 0 0 0 0 0 10 0 0 34 12 7 0 0 0 0 0 1 0 570 158 6 104 1378 1304 913 942 1115 930 351 329 635 173 54 21 30 68 29 33 45 38
0 0 0 0 1 0 0 0 0 0 0 0 14 90 16 9 7 2 0 1 123 55 1332 709 1156 1209 1202 1247 702 611 621 541 343 363 438 217 165 98 139 167 179 180 166 125
0 0 0 0 0 0 0 0 0 0 0 0 32 126 1 4 0 0 0 0 0 85 466 1384 1095 1662 1365 1213 671 437 260 342 370 333 225 180 172 193 278 299 409 346 182 335
0 10 3 0 0 0 0 0 0 1 0 0 0 167 16 44 0 0 0 0 0 1 0 470 1617 1265 1421 1331 676 430 161 113 86 170 170 351 356 323 357 313 393 289 224 334
29 76 13 0 0 0 0 0 0 0 1 1 0 62 146 52 10 0 0 0 0 0 34 31 152 1478 1401 1408 889 362 78 169 158 125 124 195 262 272 336 412 575 763 654 531
271 409 36 9 32 0 0 0 17 24 28 16 42 83 23 28 0 0 0 0 0 0 10 31 115 1707 1674 1274 621 308 238 64 10 82 260 274 380 467 505 586 627 651 529 304
218 160 165 116 7 3 31 3 177 220 74 83 79 205 27 0 112 133 61 0 0 197 303 335 302 1920 1692 1055 655 447 197 64 180 164 264 537 523 505 645 863 849 710 713 563
259 226 110 9 39 159 11 177 171 291 260 108 41 41 248 0 229 152 92 155 190 222 349 439 546 1602 1389 1035 558 416 241 485 502 449 580 787 745 783 914 978 1056 850 653 513
81 86 37 11 4 0 76 180 95 5 19 64 19 0 50 248 306 362 181 267 250 226 487 770 838 1934 1448 1025 674 366 288 504 537 557 874 1077 1098 1115 1090 1096 955 798 752 30
237 256 22 75 3 0 168 436 561 370 235 260 296 183 28 7 0 15 0 414 305 354 736 909 1862 2032 1624 833 534 285 411 605 841 924 1109 1382 1430 1368 1332 1302 1055 829 401 101
288 89 632 770 442 57 8 12 6 2 2 7 3 14 4 19 8 1 4 0 229 546 850 1174 1752 1096 491 428 480 53 0 0 179 1548 1570 1771 1805 1711 863 1083 802 364 134 157
209 28 163 476 186 20 14 0 0 0 4 27 38 1 11 31 42 47 117 216 852 1019 473 60 0 0 0 0 0 0 0 0 0 22 1363 1131 1534 1492 1057 230 185 177 208 159
109 129 94 181 58 103 0 0 0 0 0 0 11 3 17 100 511 839 522 955 778 707 511 327 26 13 63 0 0 0 0 0 0 0 9 697 1147 864 0 1 0 0 0 0
152 111 188 0 14 8 0 0 0 0 0 0 0 0 44 125 866 1234 1340 732 319 312 592 214 0 0 0 5 0 0 0 0 0 3 370 649 535 305 0 0 0 0 0 0